Welcome to The Terminal

Map Downloads:

134 maps found
Name Type Author Date Downloads Rating
Amaplanca II TSC Gwizz 09/10/02 1642 50% (1)
Apple War Ooze TSC Gwizz 21/05/02 1831 0% (0)
Arboria TSC Anders Robert Pilgaard 21/05/02 1724 0% (0)
Atlantis National Railways TSC Anders Robert Pilgaard 21/05/02 3034 100% (2)
Atoll RRT2 Gwizz 21/05/02 1533 70% (2)
Atoll Temple RRT2 Gwizz 21/05/02 1361 0% (0)
Auf Der Flucht RRT2 Robert the "porky" 21/05/02 1657 75% (2)
Aurelia 1862 TSC Anders Robert Pilgaard 21/05/02 1470 0% (0)
Bex TSC Adam 21/05/02 1303 0% (0)
Big Apple II RRT2 PopTop Software 21/05/02 2271 80% (1)
Big Apple IIe TSC Steve Lorenz 21/05/02 1244 0% (0)
Borduria TSC Anders Robert Pilgaard 21/05/02 1462 0% (0)
Britannia RRT2 J Sylvest and GS Bales 21/05/02 1863 0% (0)
Bulvanian Petroleoum TSC Toni Ronkko 24/09/02 2032 50% (2)
Changes In Transportation RRT2 Brian Duarte 21/05/02 2156 0% (0)
Cheryls Valley RRT2 Tigger 21/05/02 1520 0% (0)
Closa RRT2 Darrell 21/05/02 1353 0% (0)
Coal Country RRT2 Sirian 21/05/02 2277 0% (0)
Coast Line TSC Lars Maischak 15/06/03 1413 100% (1)
Colorz! RRT2 Bill Ingram 21/05/02 1689 85% (2)
Copalis RRT2 Mike Burke & Jamie Burnett 21/05/02 1730 95% (2)
Corsairland RRT2 Kent Powderly 21/05/02 1908 0% (0)
County Sodenstein TSC Lars Maischak 15/06/03 1124 60% (1)
Darkmere RRT2 Ian Lewis 21/05/02 1531 0% (0)
Docklands RRT2 Jonathon James Tan 21/05/02 1804 20% (1)
DragonIsle RRT2 Unknown 21/05/02 1659 0% (0)
Edland RRT2 Eddie Bangor 21/05/02 1926 100% (1)
Euphoria TSC PopTop Software 21/05/02 1309 90% (1)
Fantasia TSC Anders Robert Pilgaard 21/05/02 1211 0% (0)
File Island TSC Jimmy Chau 09/12/05 3017 90% (1)
Final Fantasy 7 TSC Matthew Willis 21/05/02 1686 0% (0)
Fisland RRT2 Dave Donaldson 21/05/02 1870 100% (1)
Free Four All RRT2 Sirian 21/05/02 1693 100% (1)
Gateway to Paradise TSC Matthew Asnip 21/05/02 1972 0% (0)
Gateway to Paradise (Light) TSC Matthew Asnip 21/05/02 997 0% (0)
Gold Rush! RRT2 Andrew Mark Schwartz 21/05/02 2217 0% (0)
Golden Fjords Scenic RRT2 Kent Powderly 21/05/02 1649 0% (0)
Grand Prix RRT2 Sirian 21/05/02 2025 89% (7)
Great Crater RRT2 Kent Powderly 21/05/02 2293 90% (1)
Green Mars RRT2 Gonzo 21/05/02 2159 0% (0)
Grosetania RRT2 Whitey 21/05/02 1426 0% (0)
Hail Sevastia TSC David Masters 21/05/02 1410 45% (2)
Hibirnia TSC Anders Robert Pilgaard 21/05/02 1355 0% (0)
High Desert RRT2 Dave 21/05/02 2229 0% (0)
High Desert 2 TSC A. Gracier 21/05/02 1572 0% (0)
Industrial Fixer Upper TSC Gwizz 21/05/02 1381 70% (1)
Island Conquest TSC James Stevens 21/05/02 1247 0% (0)
Kingdom of Tara TSC Anders Robert Pilgaard 21/05/02 1463 30% (1)
Kua'Apuanii TSC PopTop Software 21/05/02 1153 0% (0)
Lagoria TSC Anders Robert Pilgaard 21/05/02 3617 0% (0)
Lala-land TSC Robbie Langton 19/04/04 1505 0% (0)
Lusitania TSC Anders Robert Pilgaard 21/05/02 1445 50% (1)
Mad King Ed TSC Eddie Bangor 21/05/02 1336 90% (1)
Mad King Ed RRT2 Eddie Bangor 21/05/02 1367 0% (0)
Majode TSC Mark Confer 20/02/04 1530 100% (2)
Making The Grade RRT2 Sirian 21/05/02 1805 100% (2)
Making The Grade RRT2 Sirian 21/05/02 1074 0% (0)
Mars RRT2 James Stevens 21/05/02 1563 0% (0)
Mars TSC James Stevens 21/05/02 1205 0% (0)
Mason County RRT2 Mike Gasaway 21/05/02 1436 0% (0)
Metro31-H RRT2 Unknown 21/05/02 1874 0% (0)
Middle Earth RRT2 Kent Powderly 21/05/02 4089 0% (0)
Military 12 TSC Kraellin 21/05/02 1747 30% (1)
MongoIsland TSC Anders Robert Pilgaard 21/05/02 1101 0% (0)
Montania 1858 TSC Anders Robert Pilgaard 21/05/02 1280 0% (0)
Morietzia RRT2 Unknown 21/05/02 1537 0% (0)
Mtron '99 TSC James Stevens 21/05/02 1051 0% (0)
New Eden TSC Marco Stefanutti 21/05/02 2437 0% (0)
Oceania RRT2 Eckhard Flor 21/05/02 1917 0% (0)
Oceania 1862 TSC Anders Robert Pilgaard 21/05/02 1352 0% (0)
Ourcadia RRT2 Rodolphe Bourgouin 21/05/02 1213 0% (0)
Overpass TSC Steve Lorenz 21/05/02 903 0% (0)
Overpass & Tunnels TSC David Gross 21/05/02 1290 0% (0)
Paradise 2000 TSC Rick Bottens 21/05/02 1231 0% (0)
Parniath Bridge TSC PopTop Software 21/05/02 1248 0% (0)
Party Machines TSC Lars Maischak 21/05/02 1452 80% (1)
Patagonia RRT2 [pro] 21/05/02 1670 0% (0)
Peninsula RRT2 Anders Robert Pilgaard 21/05/02 1386 0% (0)
Peninsula 2 TSC Anders Robert Pilgaard 03/06/02 2174 0% (0)
Quickie 2A TSC Unknown 21/05/02 904 0% (0)
Royal Empress TSC Jon Calon 21/05/02 1364 0% (0)
Sarelia TSC Anders Robert Pilgaard 21/05/02 1790 80% (1)
Something Trekky TSC James Stevens 21/05/02 1043 0% (0)
Starship Troopers TSC Steve Lorenz 21/05/02 1904 100% (1)
Strange Glue RRT2 James Stevens 21/05/02 1281 0% (0)
Sylvania TSC Anders Robert Pilgaard 21/05/02 2296 0% (0)
Tanagore Island TSC David Masters 21/05/02 1248 0% (0)
Taresia TSC Anders Robert Pilgaard 03/06/02 1069 0% (0)
Tatooine RRT2 Andy Moorer 21/05/02 1925 0% (0)
Tehos RRT2 Juho Tiettinen 15/06/03 1279 0% (0)
TehoWorld RRT2 Juho Tiettinen 15/06/03 2448 0% (0)
Terra Aqueos RRT2 James Wellham 21/05/02 1661 100% (1)
Tester TSC Steve Lorenz 21/05/02 1078 0% (0)
Tester RRT2 Steve Lorenz 21/05/02 1208 0% (0)
The Darkening 1 TSC James Stevens 21/05/02 1344 80% (1)
The Darkening 2 TSC James Stevens 21/05/02 1072 10% (1)
The Darkening 3: Unite the States TSC James Stevens 21/05/02 1357 90% (1)
The Darkening 4: Floods Legacy TSC James Stevens 21/05/02 1228 0% (0)
The Iron Spike TSC Overlord 15/06/03 2376 0% (0)
The Main Vein RRT2 Derek D 21/05/02 1272 0% (0)
The Mines RRT2 Tony J Frank 21/05/02 1920 0% (0)
The National World TSC Matthew Tam 21/05/02 1421 0% (0)
The World Map TSC Matthew Tam 21/05/02 2299 0% (0)
Tidland TSC James E. Petts 21/05/02 994 0% (0)
Tolnedran Imperial Railway TSC Richard Lally 21/05/02 1680 0% (0)
Towers Of Hell TSC James Stevens 21/05/02 986 0% (0)
Train Island RRT2 Jonathan 21/05/02 1245 0% (0)
Treasure Island RRT2 Unknown 21/05/02 1923 0% (0)
Utopia RRT2 Cecil Harper 21/05/02 1827 0% (0)
Utopia TSC Anders Robert Pilgaard 21/05/02 1208 0% (0)
Utopia 2 TSC Anders Robert Pilgaard 21/05/02 1459 0% (0)
Venturia TSC Anders Robert Pilgaard 03/06/02 2256 0% (0)
Vulcano RRT2 Martijn ter Haar 21/05/02 1150 0% (0)
Witch's Route TSC Charles Swain 21/05/02 1025 10% (1)
WNE 01: Map One RRT2 James Stevens 21/05/02 1422 0% (0)
WNE 02: Switzlerland 2099 RRT2 James Stevens 21/05/02 1706 0% (0)
WNE 03: Appleasia RRT2 James Stevens 21/05/02 1389 0% (0)
WNE 04: Begin Again RRT2 James Stevens 21/05/02 1334 0% (0)
WNE 05: Mars Corp RRT2 James Stevens 21/05/02 1312 0% (0)
WNE 06: The Freedom Movement RRT2 James Stevens 21/05/02 1140 0% (0)
WNE 07: Titan: The New Earth? RRT2 James Stevens 21/05/02 1703 0% (0)
WNE 08: Titan: Last Rights RRT2 James Stevens 21/05/02 1390 30% (1)
WNE 09: Erase/Rewind RRT2 James Stevens 21/05/02 1507 0% (0)
WNE 10: Reunification RRT2 James Stevens 21/05/02 1127 0% (0)
WNE 11: Future's End TSC James Stevens 21/05/02 1230 0% (0)
WNE 12: Test Of Time TSC James Stevens 21/05/02 1190 75% (2)
WNE 13: The Awakening RRT2 James Stevens 21/05/02 1260 0% (0)
WNE 14: The Money Pit RRT2 James Stevens 21/05/02 1321 0% (0)
WNE 15: Scorched Earth RRT2 James Stevens 21/05/02 1334 0% (0)
WNE 16: The Launch RRT2 James Stevens 21/05/02 1277 0% (0)
WNE 17: Rising Star RRT2 James Stevens 21/05/02 1069 0% (0)
WNE 18: Cold War RRT2 James Stevens 21/05/02 1320 0% (0)
WNE 19: For Gorwin's Honour RRT2 James Stevens 21/05/02 1387 0% (0)
WNE 20: From Hell's Heart... TSC James Stevens 21/05/02 1044 0% (0)

Site created April 23, 1998. © Jesse Reid, All Rights Reserved, 2003.